Location: Killam
(52.7910°N, 111.8608°W)
Time: 00:38:00
(UTC+00:00)

A-11 Canister half - Pass Details

Date: 18 February 2026
Orbit: 1525 x 1683 km, 47.3° (Epoch: 9 March)

Event Time Altitude Azimuth Distance (km) Brightness Sun altitude
Rises 22:53:57 0° 206° (SSW) 4,728 12.9 13.8°
Reaches altitude 10° 22:57:32 10° 196° (SSW) 3,727 12.1 13.4°
Maximum altitude 23:05:11 29° 140° (SE) 2,501 10.3 12.5°
Drops below altitude 10° 23:12:45 10° 85° (E) 3,694 10.5 11.6°
Sets 23:16:16 0° 75° (ENE) 4,680 11.0 11.2°
